World > North America > United States > Missouri > Summerfield  

Summerfield, MO Hourly Weather Updates

Feedback E-mail the Weather

Quick Clicks

Summerfield, MO Weather Maps

°F °C°F °C
Summerfield Weather Map
UTC Time: 4/22/2024, 03:37
Your Time:

Summerfield, MO Regional Weather

Expires:202404220400;;162121
ASUS43 KEAX 220315
RWREAX

WEATHER ROUNDUP FOR EASTERN KANSAS AND NORTHWEST MISSOURI
NATIONAL WEATHER SERVICE KANSAS CITY/PLEASANT HILL MO
1000 PM CDT SUN APR 21 2024


MOZ041-047>049-056>058-063>065-088>090-097-220400-
...EASTERN AND SOUTHERN MISSOURI...
  
CITY           SKY/WX    TMP DP  RH WIND       PRES   REMARKS
ST. LOUIS INTL CLEAR     51  30  44 CALM      30.22R                  
SPIRIT OF STL  CLEAR     39  33  79 W5        30.21R                  
COLUMBIA       CLEAR     50  24  36 CALM      30.22S                  
JEFFERSON CITY CLEAR     47  28  47 CALM      30.23R                  
MEXICO         CLEAR     43  30  61 SW5       30.22R                  
HANNIBAL       CLEAR     43  30  61 CALM      30.20S                  
ROLLA          CLEAR     41  29  62 CALM      30.23R                  
LEBANON        CLEAR     46  25  42 CALM      30.25R                  
OSAGE BEACH    CLEAR     41  32  70 CALM      30.25R                  
SPRINGFIELD    CLEAR     43  31  62 CALM      30.24R                  
BRANSON        CLEAR     41  30  65 W3        30.27R                  
JOPLIN         CLEAR     46  31  55 CALM      30.26R                  
WEST PLAINS    CLEAR     46  26  45 CALM      30.25R                  

$$


SKY/WX - Weather  TMP - Temperature  DP - Dew Point  RH - Humidity
WIND - Wind Direction/Speed PRES - Barometric Pressure VSB - Visibility
WCI - Wind Chill Index E13G22 Wind - East Wind 13 mph/Gusts of 22 mph

Trending Headlines

Trending Entertainment Headlines

Summerfield Radar Loop

Use the map search tool if you want to place a location marker on the radar map...

Summerfield Quick Facts

National Two Day Weather Forecast


E-mail the Summerfield Weather Forecast

Voice your opinion or tell us about page issues...